CZ-6A DEB

Satellite information

Favourite Embed

Satellite Type and Status

DEBRISIN ORBIT

Key statistics

Satellite CZ-6A DEB at a glance.

Uptime

1129

Days in orbit

Revolutions

≈ 14.0

Per day

Orbit

SSO

Sun Synchronous Orbit

Inclination

99.0

Latest

Satellite identification and parameters

Extended collection of information and parameters for CZ-6A DEB.

Object identification

Identified? True

Debris? True

Object name: CZ-6A DEB

International designator: 2022-151GM

Object number (NORAD): 54461

Object ID (CCSDS): 54461

Country: PEOPLES REPUBLIC OF CHINA (PRC)

Current information (Y/N): Y

RCS size: SMALL

Orbital parameters

Period: 102.965 minutes

Inclination: 99.0041 deg

SMA: 7277.012 km

Apoapsis: 991.681 km

Periapsis: 806.072 km

RAAN: 339.1679 deg

Eccentricy: 0.0127531

Argument of periapsis: 198.0968 deg

Mean anomaly: 161.5635 deg

Mean motion: 13.98534374 rev/day

Mean motion (dot): 0.00003059 rev/day2

B* drag term: 0.002019 1/REarth

Two-line elements (TLE)

Creation date: Dec. 12, 2025, 7:26 a.m.

Reference frame: TEME

Reference center: EARTH

Epoch: Dec. 11, 2025, 10:56 p.m. UTC

TLE line 0: 0 CZ-6A DEB

TLE line 1: 1 54461U 22151GM 25345.95557068 .00003059 00000-0 20190-2 0 9996

TLE line 2: 2 54461 99.0041 339.1679 0127531 198.0968 161.5635 13.98534374156818

Live tracking on map

Real-time ground track for satellite CZ-6A DEB.

In-orbit conjunctions

A list of the most updated potential collisions computed for object CZ-6A DEB.

Target Orbit TCA Probability of collision Miss distance Type
SL-3 R/B LEO 2025-10-12 03:39:41 0.001887848 128.0 (m) ROCKET BODY
CZ-6A DEB LEO 2025-06-06 16:02:45 0.000173719 165.0 (m) DEBRIS
COSMOS 1823 DEB LEO 2025-05-12 14:20:39 0.0001465582 216.0 (m) DEBRIS
SL-8 DEB MEO 2024-07-13 15:58:17 0.0005286518 24.0 (m) DEBRIS

Associated space launch

Chinese satellite reported for atmospheric/ocean/environmental/spatial parameter research purposes, details TBD.

CZ-6A DEB was lifted into orbit during the mission ‘Long March 6A | Yunhai 3’, on board a Long March 6A space rocket.

The launch took place on Nov. 11, 2022, 10:52 p.m. from Launch Complex 9A.

For more information about the launch, click the button.

Launch to space Long March 6A | Yunhai 3
Long March 6A | Yunhai 3

Agency: N/A

Status: Launch Successful

Launch date: Nov. 11, 2022, 10:52 p.m. UTC

Rocket: Long March 6A

Launch pad: Launch Complex 9A

Location: Taiyuan Satellite Launch Center, People's Republic of China

...

Latest news about this satellite

There are no fresh news available about this satellite. Check back as we update our databases every day.


Newsletter sign-up

Weekly statistics, charts and insights to help you stay on top of the space industry.